Tracking 30009 objects as of 7-Dec-2024
HD Live streaming from Space Station
objects crossing your sky now

STARLINK-5898

Track STARLINK-5898 now!
10-day predictions
STARLINK-5898 is classified as:


NORAD ID: 55929
Int'l Code: 2023-037R
Perigee: 577.1 km
Apogee: 581.3 km
Inclination: 70.0 °
Period: 96.1 minutes
Semi major axis: 6950 km
RCS: Unknown
Launch date: March 17, 2023
Source: United States (US)
Launch site: AIR FORCE WESTERN TEST RANGE (AFWTR)
Your satellite tracking list
Your tracking list is empty




NASA's NSSDC Master Catalog

Two Line Element Set (TLE):
1 55929U 23037R   24341.46753533  .00001974  00000-0  17321-3 0  9993
2 55929  70.0002  19.6490 0003050 269.7758  90.3052 14.98327702 95198
Source of the keplerian elements: AFSPC